2025-234B

Last updated on Mon Oct 20 2025 00:02:08 GMT+0000 (Coordinated Universal Time)

1 66054U 25234B 25292.45443203 .00047814 00000+0 21416-2 0 9991 2 66054 97.4575 358.1283 0014260 280.7858 79.1772 15.21000612 57
UTC large
Height (km)
Speed (km/s)
/
Latitude / Longitude
Inclination (degrees)
Orbital Period (minutes)
Azimuth
Elevation
Range (km)
Doppler Factor

Next 0 passes for location: London (51.5072 / 0.1276)

Sorry there are no passes over London.